Location: Holcomb Observatory and Planetarium
(39.8415°N, 86.1714°W)
Time: 20:06:55
(UTC-05:00)

Hubble Space Telescope - Visible Passes

Search period start: 17 November 2017 00:00
Search period end: 27 November 2017 00:00
Orbit: 537 x 541 km, 28.5° (Epoch: 17 November)

Date Brightness Start Highest point End Pass type
(mag) Time Alt. Az. Time Alt. Az. Time Alt. Az.
17 Nov 3.4 06:15:56 10° SSW 06:17:48 13° SSE 06:19:39 10° SE visible
18 Nov 3.3 06:05:16 10° SSW 06:07:28 14° S 06:09:40 10° SE visible
19 Nov 3.2 05:54:50 10° SSW 05:57:08 15° S 05:59:33 10° SE visible
20 Nov 3.0 05:45:22 14° SSW 05:46:48 16° S 05:49:23 10° SE visible
21 Nov 2.9 05:35:52 16° S 05:36:29 17° S 05:39:08 10° SE visible
22 Nov 3.0 05:26:19 17° S 05:26:19 17° S 05:28:49 10° SE visible
22 Nov 3.3 07:04:54 10° SW 07:06:38 12° SSW 07:08:22 10° SSE visible
23 Nov 3.1 05:16:45 15° SSE 05:16:45 15° SSE 05:18:28 10° SE visible
23 Nov 3.3 06:55:16 10° SSW 06:56:17 11° SSW 06:57:18 10° S visible
24 Nov 3.4 05:07:10 13° SSE 05:07:10 13° SSE 05:08:03 10° SSE visible
